Location: Asheville, NC
(35.6000°N, 82.5500°W)
Time: 07:06:57
(UTC-05:00)

M-CUBED/EXP-1 PRIME - Pass Details

Date: 11 February 2018
Orbit: 431 x 677 km, 101.7° (Epoch: 18 February)

Event Time Altitude Azimuth Distance (km) Brightness Sun altitude
Rises 05:49:44 0° 26° (NNE) 2,451 ? -19.1°
Reaches altitude 10° 05:51:49 10° 36° (NE) 1,599 ? -18.7°
Maximum altitude 05:54:59 36° 104° (ESE) 764 ? -18.0°
Drops below altitude 10° 05:58:20 10° 173° (S) 1,688 ? -17.3°
Sets 06:00:34 0° 182° (S) 2,611 ? -16.9°
